Tracking 31027 objects as of 19-Jul-2025
HD Live streaming from Space Station
objects crossing your sky now

PSLV DEB

Track PSLV DEB now!
10-day predictions


NORAD ID: 41792
Int'l Code: 2016-059K
Perigee: 630.3 km
Apogee: 662.5 km
Inclination: 97.8 °
Period: 97.5 minutes
Semi major axis: 7017 km
RCS: Unknown
Launch date: September 26, 2016
Source: India (IND)
Launch site: SRIHARIKOTA (SRI)

Note: This is SATELLITE DEBRIS
Your satellite tracking list
SL-14 DEB
Track 1 satellite(s)




NASA's NSSDC Master Catalog

Two Line Element Set (TLE):
1 41792U 16059K   25199.83343222  .00002651  00000-0  38287-3 0  9992
2 41792  97.8057 226.8787 0022974 149.7289 210.5254 14.76848963471620
Source of the keplerian elements: AFSPC